Regional Weather Roundup
Issued by NWS

Home | Current Version | Previous Version | Graphics & Text | Print | Product List | Glossary On
Versions: 1 2 3 4 5 6 7 8 9 10 11 12 13 14 15 16 17 18 19 20 21 22 23 24 25 26 27 28 29 30 31 32 33 34 35 36 37 38 39 40 41 42 43 44 45 46 47 48 49 50
000
ASUS43 KBIS 152002
RWRND

NORTH DAKOTA REGIONAL WEATHER ROUNDUP
NATIONAL WEATHER SERVICE BISMARCK ND
300 PM CDT TUE AUG 15 2017

NOTE: "FAIR" INDICATES FEW OR NO CLOUDS BELOW 12,000 FEET WITH NO
SIGNIFICANT WEATHER AND/OR OBSTRUCTIONS TO VISIBILITY.


NDZ001>003-009>011-017-152100-
NORTHWEST NORTH DAKOTA

CITY           SKY/WX    TMP DP  RH WIND       PRES   REMARKS
WILLISTON      PTSUNNY   73  60  63 CALM      29.85F
MINOT          CLOUDY    67  63  87 SE6       29.86S
MINOT AFB      CLOUDY    65  62  90 SE5       29.85S
$$

NDZ018>021-031>035-040>046-152100-
SOUTHWEST NORTH DAKOTA

CITY           SKY/WX    TMP DP  RH WIND       PRES   REMARKS
BISMARCK       LGT RAIN  67  64  90 E8        29.84S
DICKINSON      CLOUDY    66  61  84 CALM      29.85R
GARRISON         N/A     63  63 100 SE8       29.87S
HETTINGER ARPT CLOUDY    67  61  81 SW5       29.87R
$$

NDZ004>008-012>016-024-026-027-054-152100-
NORTHEAST NORTH DAKOTA

CITY           SKY/WX    TMP DP  RH WIND       PRES   REMARKS
GRAND FORKS    CLOUDY    76  61  59 S12       29.90S
GRND FRKS AFB  CLOUDY    72  62  69 S10       29.91S
DEVILS LAKE    LGT RAIN  70  62  76 SE9       29.90S
$$

NDZ022-023-025-028>030-036>039-047>053-152100-
SOUTHEAST NORTH DAKOTA

CITY           SKY/WX    TMP DP  RH WIND       PRES   REMARKS
FARGO          CLOUDY    74  59  59 SE13G20   29.91S
JAMESTOWN      CLOUDY    70  63  78 SE13      29.88F
$$





USA.gov is the U.S. government's official web portal to all federal, state and local government web resources and services.